Weather History for KMEI - November, 2013

Change the Weather History Date:

Saturday, November 23, 2013

  Actual Average Record
Temperature  
Mean Temperature 50 °F 52 °F  
Max Temperature 61 °F 65 °F 81 °F (1973)
Min Temperature 39 °F 40 °F 19 °F (1956)
Degree Days  
Heating Degree Days 15 13  
Month to date heating degree days 240 228  
Since 1 July heating degree days 328 352  
Cooling Degree Days 0 0  
Month to date cooling degree days 5 13  
Year to date cooling degree days 2041 2026  
Moisture  
Dew Point 46 °F    
Average Humidity 80    
Maximum Humidity 100    
Minimum Humidity 60    
Precipitation  
Precipitation 0.11 in 0.18 in 2.53 in (1979)
Month to date precipitation 1.71 3.67  
Year to date precipitation 56.86 49.82  
Sea Level Pressure  
Sea Level Pressure 30.31 in    
Wind  
Wind Speed 12 mph (North)    
Max Wind Speed 18 mph    
Max Gust Speed 24 mph    
Visibility 8 miles    
Events Rain    
T = Trace of Precipitation, MM = Missing Value Source: NWS Daily Summary

Daily Weather History Graph

Daily Weather History Graph

Search for Another Location

Airport or City:

Trip Planner

Search our weather history database for the weather conditions in past years. The results will help you decide how hot, cold, wet, or windy it might be!

Date:

Astronomy

Nov. 23, 2013 Rise Set
Actual Time 6:31 AM CST 4:51 PM CST
Civil Twilight 6:05 AM CST 5:17 PM CST
Nautical Twilight 5:35 AM CST 5:47 PM CST
Astronomical Twilight 5:05 AM CST 6:16 PM CST
Moon 10:11 PM CST (11/23) 10:54 AM CST (11/23)
Length of Visible Light 11h 12m
Length of Day
10h 19m
Waning Gibbous, 69% of the Moon is Illuminated
Nov 23
Waning Gibbous
Nov 25
Last Quarter
Dec 2
New
Dec 9
First Quarter
Dec 17
Full

Hourly Weather History & Observations

Time (CST) Temp. Windchill Dew Point Humidity Pressure Visibility Wind Dir Wind Speed Gust Speed Precip Events Conditions
12:43 AM 59.0 °F - 57.2 °F 94% 30.22 in 10.0 mi North 12.7 mph - N/A   Overcast
12:58 AM 57.9 °F - 57.0 °F 97% 30.22 in 4.0 mi North 12.7 mph - N/A   Overcast
1:58 AM 57.0 °F - 55.0 °F 93% 30.22 in 9.0 mi NNE 9.2 mph - N/A   Overcast
2:58 AM 55.0 °F - 54.0 °F 96% 30.22 in 10.0 mi NNE 11.5 mph - N/A   Overcast
3:58 AM 54.0 °F - 53.1 °F 97% 30.22 in 6.0 mi NNE 8.1 mph - N/A   Overcast
4:58 AM 54.0 °F - 53.1 °F 97% 30.23 in 6.0 mi North 9.2 mph - 0.00 in   Overcast
5:58 AM 53.1 °F - 52.0 °F 96% 30.24 in 6.0 mi North 12.7 mph - N/A   Overcast
6:58 AM 51.1 °F - 50.0 °F 96% 30.27 in 5.0 mi North 11.5 mph - N/A   Overcast
7:58 AM 50.0 °F - 48.0 °F 93% 30.30 in 6.0 mi North 15.0 mph 21.9 mph 0.00 in   Overcast
8:22 AM 50.0 °F - 48.2 °F 94% 30.30 in 2.5 mi North 12.7 mph - 0.01 in Rain Light Rain
8:30 AM 50.0 °F - 48.2 °F 94% 30.30 in 3.0 mi North 16.1 mph 20.7 mph 0.02 in Rain Rain
8:58 AM 50.0 °F - 48.0 °F 93% 30.31 in 3.0 mi North 10.4 mph - 0.04 in Rain Light Rain
9:06 AM 48.2 °F - 48.2 °F 100% 30.32 in 2.5 mi North 13.8 mph - 0.01 in Rain Light Rain
9:17 AM 48.2 °F - 48.2 °F 100% 30.32 in 2.5 mi North 11.5 mph - 0.03 in Rain Rain
9:25 AM 48.2 °F - 48.2 °F 100% 30.32 in 4.0 mi North 10.4 mph - 0.03 in Rain Light Rain
9:58 AM 50.0 °F - 48.0 °F 93% 30.32 in 4.0 mi North 10.4 mph - 0.04 in Rain Light Rain
10:06 AM 48.2 °F - 48.2 °F 100% 30.32 in 7.0 mi North 10.4 mph - 0.01 in Rain Light Rain
10:58 AM 48.9 °F - 46.9 °F 93% 30.31 in 6.0 mi North 12.7 mph - 0.02 in Rain Light Rain
11:58 AM 48.9 °F - 48.0 °F 97% 30.30 in 9.0 mi North 12.7 mph - 0.01 in Rain Light Rain
12:58 PM 48.9 °F - 46.0 °F 90% 30.29 in 9.0 mi North 13.8 mph - 0.00 in Rain Light Rain
1:12 PM 48.2 °F - 46.4 °F 93% 30.30 in 8.0 mi North 12.7 mph - 0.00 in   Overcast
1:58 PM 48.0 °F - 45.0 °F 89% 30.30 in 8.0 mi North 15.0 mph 20.7 mph 0.00 in Rain Light Rain
2:58 PM 48.0 °F - 45.0 °F 89% 30.30 in 10.0 mi North 10.4 mph - 0.00 in   Overcast
3:05 PM 48.2 °F - 44.6 °F 87% 30.30 in 10.0 mi North 8.1 mph - N/A   Overcast
3:58 PM 46.9 °F - 44.1 °F 90% 30.32 in 10.0 mi North 11.5 mph - 0.00 in Rain Light Rain
4:28 PM 46.4 °F 41.5 °F 44.6 °F 93% 30.33 in 10.0 mi North 10.4 mph - N/A   Overcast
4:32 PM 46.4 °F 41.5 °F 44.6 °F 93% 30.33 in 10.0 mi North 10.4 mph - N/A   Overcast
4:49 PM 46.4 °F 41.1 °F 44.6 °F 93% 30.33 in 10.0 mi North 11.5 mph - N/A   Overcast
4:58 PM 46.9 °F - 43.0 °F 86% 30.32 in 10.0 mi North 16.1 mph 24.2 mph N/A   Overcast
5:08 PM 46.4 °F 39.5 °F 42.8 °F 87% 30.33 in 10.0 mi North 17.3 mph 24.2 mph N/A   Overcast
5:58 PM 45.0 °F 38.9 °F 42.1 °F 90% 30.35 in 10.0 mi North 12.7 mph - N/A   Overcast
6:58 PM 44.1 °F 38.6 °F 39.9 °F 85% 30.36 in 10.0 mi North 10.4 mph - N/A   Clear
7:58 PM 45.0 °F 39.7 °F 39.0 °F 80% 30.36 in 10.0 mi North 10.4 mph 20.7 mph N/A   Clear
8:58 PM 44.1 °F 37.4 °F 35.1 °F 71% 30.36 in 10.0 mi North 13.8 mph - N/A   Clear
9:58 PM 42.1 °F 35.2 °F 34.0 °F 73% 30.38 in 10.0 mi North 12.7 mph - N/A   Clear
10:58 PM 41.0 °F 34.3 °F 28.9 °F 62% 30.40 in 10.0 mi North 11.5 mph 20.7 mph N/A   Clear
11:58 PM 39.0 °F 32.3 °F 30.0 °F 70% 30.41 in 10.0 mi North 10.4 mph - N/A   Clear